Flag for U.S.A. Weather past 2 weeks in Boston, Massachusetts, U.S.A.

30 °F

Passing clouds.

Feels Like: 20 °F
Forecast: 32 / 38 °F
Wind: 12 mph from North

Location: Logan International Airport

Current Time: Nov 30, 2015 at 3:38:12 AM

Latest Report: Nov 30, 2015 at 2:54 AM

Visibility: 10 mi

Pressure: 30.45 "Hg

Humidity: 66%

Dew point: 20 °F

Location of BostonLocation

Historic Weather in Boston — Graph


Boston temperature yesterday

Maximum temperature yesterday: 43 °F (at 1:54 PM)
Minimum temperature yesterday: 32 °F (at 5:54 AM)
Average temperature yesterday: 37 °F

Past Weeks' High & Low Weather Summary

High64 °F (Nov 27, 1:54 PM)100% (Nov 20, 6:03 AM)30.87 "Hg (Nov 20, 6:03 AM)
Low29 °F (Nov 24, 2:54 AM)18% (Nov 16, 3:54 PM)29.80 "Hg (Nov 23, 2:54 AM)
Average44 °F65%30.30 "Hg
* Reported Nov 15 1:54 AM — Nov 30 1:54 AM, Boston, Weather by CustomWeather, © 2015

Note: Actual official high and low records may vary slightly from our data, if they occured in-between our weather recording intervals... More about our weather records


Boston weather history for previous 24 hours

Time TempWeatherWind HumidityBarometerVisibility
1:54 AM
Mon, Nov 30
31 °FPassing clouds.10 mph67%30.43 "Hg10 mi
12:54 AM31 °FPassing clouds.12 mph69%30.42 "Hg10 mi
11:54 PM
Sun, Nov 29
32 °FPassing clouds.12 mph64%30.42 "Hg10 mi
10:54 PM33 °FPassing clouds.9 mph61%30.41 "Hg10 mi
9:54 PM34 °FPassing clouds.12 mph56%30.38 "Hg10 mi
8:54 PM34 °FPassing clouds.12 mph56%30.35 "Hg10 mi
7:54 PM35 °FPassing clouds.13 mph54%30.33 "Hg10 mi
6:54 PM37 °FClear.14 mph48%30.33 "Hg10 mi
5:54 PM38 °FClear.8 mph43%30.30 "Hg10 mi
4:54 PM39 °FPassing clouds.12 mph38%30.27 "Hg10 mi
3:54 PM41 °FScattered clouds.9 mph39%30.24 "Hg10 mi
2:54 PM43 °FScattered clouds.8 mph37%30.22 "Hg10 mi
1:54 PM43 °FScattered clouds.7 mph40%30.21 "Hg10 mi
12:54 PM42 °FScattered clouds.9 mph41%30.22 "Hg10 mi
11:54 AM42 °FScattered clouds.10 mph39%30.21 "Hg10 mi
10:54 AM39 °FScattered clouds.8 mph48%30.23 "Hg10 mi
9:54 AM37 °FScattered clouds.6 mph57%30.24 "Hg10 mi
8:54 AM34 °FScattered clouds.9 mph67%30.25 "Hg10 mi
7:54 AM32 °FScattered clouds.8 mph79%30.24 "Hg10 mi
6:54 AM32 °FScattered clouds.7 mph79%30.23 "Hg10 mi
5:54 AM32 °FPartly cloudy.10 mph79%30.22 "Hg10 mi
4:54 AM33 °FPassing clouds.10 mph75%30.21 "Hg10 mi
3:54 AM34 °FPassing clouds.13 mph76%30.20 "Hg10 mi
Weather by CustomWeather, © 2015

See weather overviewHow to use our weather pages